GW4768 Weather Reports


Display with metric or nautical units.
time (UTC)temp
F
wind
direction
speed
MPH
gust
MPH
rain 1hr
in
rain 24hr
in
rain mn
in
humidity
%
barometer
mb
20260905040017 52 44 0.0 2.0 0.00 0.36 0.36 90 1018.8
20260905034516 52 319 1.0 3.0 0.01 0.36 0.36 90 1018.9
20260905033028 52 278 1.0 6.0 0.01 0.36 0.36 89 1018.6
20260905031535 53 317 0.0 2.0 0.01 0.36 0.36 90 1018.9
20260905030030 53 252 1.0 2.0 0.03 0.36 0.36 89 1019.1
20260905024523 53 230 4.0 5.0 0.04 0.35 0.35 88 1019.0
20260905023029 53 71 3.0 7.0 0.07 0.35 0.35 86 1018.7
20260905021516 53 82 5.0 8.0 0.08 0.35 0.35 87 1018.5
20260905020020 53 60 6.0 9.0 0.11 0.33 0.33 86 1018.6
20260905014531 54 78 6.0 10.0 0.13 0.31 0.31 86 1018.4
20260905013030 54 81 7.0 10.0 0.10 0.28 0.28 84 1017.7
20260905011532 56 35 3.0 5.0 0.09 0.27 0.27 79 1017.5
20260905010029 59 5 1.0 4.0 0.04 0.22 0.22 70 1017.3
20260905004523 59 313 4.0 12.0 0.00 0.18 0.18 67 1016.6
20260905003023 61 313 8.0 14.0 0.00 0.18 0.18 63 1016.1
20260905001516 61 321 7.0 11.0 0.00 0.18 0.18 64 1016.0
20260905000024 61 244 2.0 7.0 0.00 0.18 0.18 64 1015.8
20260904234544 62 324 5.0 9.0 0.00 0.18 0.18 61 1015.3
20260904233048 63 311 4.0 10.0 0.00 0.18 0.18 57 1015.4
20260904231530 63 314 4.0 8.0 0.00 0.18 0.18 58 1015.4
20260904230032 64 262 3.0 7.0 0.00 0.18 0.18 57 1015.2
20260904224539 63 349 5.0 8.0 0.00 0.18 0.18 59 1015.2
20260904223031 63 47 5.0 7.0 0.00 0.18 0.18 60 1015.2
20260904221522 62 77 4.0 7.0 0.00 0.18 0.18 60 1015.5
20260904220029 62 17 2.0 4.0 0.00 0.18 0.18 60 1015.5
20260904214542 61 25 3.0 5.0 0.00 0.18 0.18 61 1015.4
20260904213037 61 360 3.0 10.0 0.00 0.18 0.18 62 1015.1
20260904211532 62 348 5.0 13.0 0.00 0.18 0.18 62 1014.9
20260904210038 61 352 5.0 13.0 0.00 0.18 0.18 60 1014.7
20260904204532 61 12 7.0 12.0 0.00 0.18 0.18 61 1014.7
20260904203032 60 26 4.0 12.0 0.00 0.18 0.18 67 1014.9
20260904201529 60 319 7.0 12.0 0.00 0.18 0.18 69 1014.9
20260904200029 60 342 5.0 9.0 0.00 0.18 0.18 68 1015.4
20260904194532 59 346 5.0 11.0 0.00 0.18 0.18 70 1015.5
20260904193041 59 9 6.0 12.0 0.00 0.18 0.18 70 1015.3
20260904191533 58 27 6.0 10.0 0.00 0.18 0.18 74 1015.5
20260904190027 58 350 7.0 11.0 0.00 0.18 0.18 72 1015.6
20260904184518 57 349 6.0 12.0 0.00 0.18 0.18 74 1015.7
20260904183030 56 19 5.0 9.0 0.00 0.18 0.18 74 1015.8
20260904181530 56 341 4.0 8.0 0.00 0.18 0.18 74 1015.9
20260904180029 56 288 3.0 7.0 0.00 0.18 0.18 76 1015.8
20260904174529 56 92 2.0 7.0 0.00 0.18 0.18 74 1015.9
20260904173030 55 333 3.0 6.0 0.00 0.18 0.18 79 1015.7
20260904171520 54 352 4.0 7.0 0.00 0.18 0.18 78 1015.7
20260904170030 54 46 3.0 7.0 0.00 0.18 0.18 81 1015.7
20260904164515 53 330 1.0 4.0 0.00 0.18 0.18 79 1015.5
20260904163034 53 352 2.0 4.0 0.00 0.18 0.18 80 1015.4
20260904161530 52 332 0.0 4.0 0.00 0.18 0.18 80 1015.4
20260904160039 51 336 0.0 2.0 0.00 0.18 0.18 83 1015.2
20260904154529 51 45 1.0 3.0 0.00 0.18 0.18 84 1015.0
20260904153041 51 55 2.0 6.0 0.00 0.18 0.18 84 1014.8
20260904151525 51 92 2.0 3.0 0.00 0.18 0.18 85 1014.8
20260904150029 49 121 1.0 3.0 0.00 0.18 0.18 89 1014.5
20260904144517 48 132 0.0 2.0 0.00 0.18 0.18 91 1014.3
20260904143032 47 194 0.0 2.0 0.00 0.18 0.18 92 1014.3
20260904141539 47 108 1.0 3.0 0.01 0.18 0.18 91 1014.1
20260904140031 46 225 0.0 3.0 0.02 0.18 0.18 91 1014.1
20260904134531 46 271 1.0 3.0 0.08 0.18 0.18 91 1013.8
20260904133005 47 237 2.0 3.0 0.12 0.18 0.18 90 1013.8
20260904131503 47 280 1.0 3.0 0.13 0.17 0.17 90 1013.8
20260904130003 47 73 2.0 3.0 0.14 0.16 0.16 89 1013.8
20260904124503 48 260 0.0 2.0 0.10 0.10 0.10 87 1013.8
20260904123018 48 302 0.0 2.0 0.06 0.06 0.06 85 1013.6
20260904121519 49 237 1.0 3.0 0.04 0.04 0.04 84 1013.4
20260904120016 50 168 1.0 3.0 0.02 0.02 0.02 78 1013.2
20260904114540 51 196 2.0 9.0 0.00 0.00 0.00 75 1012.8
20260904113005 51 93 3.0 6.0 0.00 0.00 0.00 82 1012.4
20260904111506 51 232 3.0 4.0 0.00 0.00 0.00 83 1012.0
20260904110012 51 336 2.0 9.0 0.00 0.00 0.00 83 1011.5
20260904104504 53 342 5.0 11.0 0.00 0.00 0.00 78 1011.1
20260904103019 53 327 3.0 7.0 0.00 0.00 0.00 81 1010.8
20260904101537 53 158 1.0 7.0 0.00 0.00 0.00 80 1010.2
20260904100016 54 164 0.0 12.0 0.00 0.00 0.00 80 1010.1
20260904094512 52 108 5.0 9.0 0.00 0.00 0.00 85 1009.3
20260904093008 52 94 3.0 6.0 0.00 0.00 0.00 85 1009.3
20260904091534 52 246 0.0 4.0 0.00 0.00 0.00 84 1008.9
20260904090006 52 194 1.0 3.0 0.00 0.00 0.00 84 1008.6
20260904084530 51 60 1.0 2.0 0.00 0.00 0.00 85 1008.3
20260904083024 51 90 4.0 7.0 0.00 0.00 0.00 85 1008.2
20260904081523 52 190 0.0 2.0 0.00 0.00 0.00 84 1008.0
20260904080015 52 242 4.0 5.0 0.00 0.00 0.00 83 1008.6
20260904074521 53 240 1.0 3.0 0.00 0.00 0.00 80 1008.3
20260904073010 53 165 3.0 5.0 0.00 0.00 0.00 79 1008.7
20260904071527 53 134 3.0 5.0 0.00 0.00 0.00 79 1009.0
20260904070009 52 124 4.0 7.0 0.00 0.00 0.00 80 1009.1
20260904064528 52 155 2.0 6.0 0.00 0.00 0.00 81 1009.1
20260904063049 51 132 4.0 7.0 0.00 0.00 0.00 83 1009.3
20260904061526 51 252 1.0 5.0 0.00 0.00 0.00 83 1009.3
20260904060019 52 238 2.0 5.0 0.00 0.00 0.00 81 1009.3
20260904054519 52 145 2.0 4.0 0.00 0.00 0.00 81 1009.5
20260904053015 53 159 2.0 4.0 0.00 0.00 0.00 81 1009.6
20260904051510 53 140 2.0 3.0 0.00 0.00 0.00 81 1009.7
20260904050034 53 136 2.0 3.0 0.00 0.00 0.00 81 1009.9
20260904044541 53 167 0.0 3.0 0.00 0.00 0.00 80 1010.2
20260904043004 54 167 0.0 2.0 0.00 0.00 0.00 80 1010.4
20260904041508 54 132 1.0 2.0 0.00 0.00 0.00 80 1010.7